Weather History for Lacon, IL

Change the Weather History Date:

Sunday, December 2, 2012

  Actual Average (KPIA) Record (KPIA)
Temperature  
Mean Temperature 60 °F 33 °F  
Max Temperature 68 °F 41 °F 71 °F (1982)
Min Temperature 52 °F 26 °F -6 °F (1886)
Degree Days  
Heating Degree Days 5 32  
Month to date heating degree days 63  
Since 1 July heating degree days 1211  
Cooling Degree Days 0 0  
Month to date cooling degree days 0  
Year to date cooling degree days 1039  
Growing Degree Days 10 (Base 50)    
Moisture  
Dew Point 54 °F    
Average Humidity 75    
Maximum Humidity 90    
Minimum Humidity 64    
Precipitation  
Precipitation 0.00 in 0.10 in 2.34 in (1982)
Month to date precipitation 0.19  
Year to date precipitation 34.26  
Snow  
Snow 0.00 in 0.10 in 8.00 in (1893)
Month to date snowfall 0.3  
Since 1 July snowfall 1.4  
Snow Depth -    
Sea Level Pressure  
Sea Level Pressure 29.97 in    
Wind  
Wind Speed 6 mph (SSW)    
Max Wind Speed 18 mph    
Max Gust Speed 24 mph    
Visibility 7 miles    
Events Fog    
T = Trace of Precipitation, MM = Missing Value Source: NWS Daily Summary

Daily Weather History Graph

Daily Weather History Graph

Search for Another Location

Airport:

Trip Planner

Search our weather history database for the weather conditions in past years. The results will help you decide how hot, cold, wet, or windy it might be!

Date:

Astronomy

Dec. 02, 2012 Rise Set
Actual Time 7:04 AM CST 4:29 PM CST
Civil Twilight 6:33 AM CST 5:00 PM CST
Nautical Twilight 5:59 AM CST 5:34 PM CST
Astronomical Twilight 5:26 AM CST 6:07 PM CST
Moon 8:17 PM CST (12/2) 9:53 AM CST (12/2)
Length of Visible Light 10h 26m
Length of Day
9h 24m
Waning Gibbous, 85% of the Moon is Illuminated
Dec 2
Waning Gibbous
Dec 6
Last Quarter
Dec 13
New
Dec 19
First Quarter
Dec 28
Full

Hourly Weather History & Observations

Time (CST) Temp. Dew Point Humidity Pressure Visibility Wind Dir Wind Speed Gust Speed Precip Events Conditions
12:15 AM 66.4 °F 54.0 °F 64% 29.88 in 10.0 mi South 10.4 mph 19.6 mph N/A   Overcast
12:35 AM 66.2 °F 53.8 °F 64% 29.87 in 10.0 mi South 11.5 mph 19.6 mph N/A   Overcast
12:55 AM 65.8 °F 53.6 °F 65% 29.87 in 10.0 mi South 12.7 mph 17.3 mph N/A   Overcast
1:15 AM 65.8 °F 53.6 °F 65% 29.87 in 10.0 mi South 15.0 mph 19.6 mph N/A   Overcast
1:35 AM 66.2 °F 53.6 °F 64% 29.87 in 10.0 mi South 18.4 mph 24.2 mph N/A   Overcast
1:55 AM 64.6 °F 54.7 °F 70% 29.87 in 10.0 mi South 11.5 mph 19.6 mph N/A   Overcast
2:15 AM 63.7 °F 54.7 °F 72% 29.88 in 10.0 mi South 9.2 mph - N/A   Overcast
2:35 AM 63.0 °F 54.5 °F 74% 29.88 in 10.0 mi SSW 9.2 mph - N/A   Mostly Cloudy
2:55 AM 63.5 °F 54.7 °F 73% 29.89 in 10.0 mi South 9.2 mph - N/A   Overcast
3:15 AM 63.5 °F 54.5 °F 72% 29.89 in 10.0 mi South 8.1 mph - N/A   Overcast
3:35 AM 63.5 °F 54.5 °F 72% 29.88 in 10.0 mi South 5.8 mph - N/A   Overcast
3:55 AM 63.9 °F 54.7 °F 72% 29.88 in 10.0 mi South 6.9 mph - N/A   Overcast
4:15 AM 63.5 °F 54.5 °F 72% 29.89 in 10.0 mi SSW 4.6 mph - N/A   Overcast
4:35 AM 63.5 °F 54.7 °F 73% 29.89 in 10.0 mi SSW 5.8 mph - N/A   Overcast
4:55 AM 62.8 °F 54.5 °F 74% 29.89 in 10.0 mi South 5.8 mph - N/A   Mostly Cloudy
5:15 AM 63.1 °F 54.9 °F 74% 29.90 in 10.0 mi South 4.6 mph - N/A   Mostly Cloudy
5:35 AM 63.3 °F 55.0 °F 74% 29.90 in 10.0 mi SSW 4.6 mph - N/A   Overcast
5:55 AM 63.0 °F 55.0 °F 75% 29.91 in 10.0 mi SSW 4.6 mph - N/A   Overcast
6:15 AM 63.0 °F 55.0 °F 75% 29.92 in 10.0 mi South 3.5 mph - N/A   Overcast
6:35 AM 61.9 °F 54.7 °F 77% 29.93 in 10.0 mi South 3.5 mph - N/A   Overcast
6:55 AM 61.9 °F 54.9 °F 78% 29.93 in 10.0 mi South 4.6 mph - N/A   Overcast
7:15 AM 62.6 °F 55.4 °F 77% 29.93 in 10.0 mi SSW 4.6 mph - N/A   Overcast
7:35 AM 62.6 °F 55.6 °F 78% 29.94 in 10.0 mi SSW 4.6 mph - N/A   Overcast
7:55 AM 62.8 °F 55.6 °F 77% 29.95 in 10.0 mi SSW 4.6 mph - N/A   Overcast
8:15 AM 63.0 °F 55.8 °F 77% 29.96 in 10.0 mi SSW 3.5 mph - N/A   Overcast
8:35 AM 63.5 °F 56.1 °F 77% 29.96 in 10.0 mi SSW 3.5 mph - N/A   Overcast
8:55 AM 63.7 °F 55.9 °F 76% 29.97 in 10.0 mi SSW 3.5 mph - N/A   Overcast
9:15 AM 64.4 °F 56.3 °F 75% 29.98 in 10.0 mi SW 3.5 mph - N/A   Mostly Cloudy
9:35 AM 65.3 °F 56.7 °F 74% 29.99 in 10.0 mi Calm Calm - N/A   Mostly Cloudy
9:55 AM 65.8 °F 57.2 °F 74% 29.99 in 7.0 mi West 5.8 mph - N/A   Overcast
10:15 AM 66.2 °F 57.2 °F 73% 30.00 in 7.0 mi West 5.8 mph - N/A   Overcast
10:35 AM 65.7 °F 56.7 °F 73% 30.00 in 7.0 mi WNW 4.6 mph - N/A   Overcast
10:55 AM 65.7 °F 57.0 °F 74% 29.99 in 7.0 mi West 3.5 mph - N/A   Overcast
11:15 AM 66.4 °F 56.8 °F 71% 29.98 in 7.0 mi Calm Calm - N/A   Mostly Cloudy
11:35 AM 67.3 °F 56.8 °F 69% 29.98 in 7.0 mi Calm Calm - N/A   Mostly Cloudy
11:55 AM 67.1 °F 57.0 °F 70% 29.98 in 7.0 mi Calm Calm - N/A   Overcast
12:15 PM 68.0 °F 57.0 °F 68% 29.98 in 7.0 mi SW 3.5 mph - N/A   Overcast
12:35 PM 68.7 °F 56.8 °F 66% 29.98 in 5.0 mi Calm Calm - N/A   Haze
12:55 PM 68.4 °F 56.8 °F 67% 29.98 in 5.0 mi Calm Calm - N/A   Haze
1:15 PM 68.7 °F 56.3 °F 64% 29.98 in 5.0 mi WSW 4.6 mph - N/A   Haze
1:35 PM 68.9 °F 56.5 °F 65% 29.98 in 7.0 mi SW 3.5 mph - N/A   Overcast
1:55 PM 68.4 °F 56.7 °F 66% 29.98 in 5.0 mi South 4.6 mph - N/A   Haze
2:15 PM 68.5 °F 56.7 °F 66% 29.98 in 5.0 mi South 5.8 mph - N/A   Haze
2:35 PM 68.0 °F 56.3 °F 66% 29.98 in 7.0 mi South 5.8 mph - N/A   Overcast
2:55 PM 68.0 °F 57.2 °F 68% 29.98 in 5.0 mi South 5.8 mph - N/A   Haze
3:15 PM 67.3 °F 56.3 °F 68% 29.98 in 5.0 mi South 4.6 mph - N/A   Haze
3:35 PM 67.1 °F 56.3 °F 68% 29.99 in 5.0 mi Calm Calm - N/A   Haze
3:55 PM 66.0 °F 55.9 °F 70% 29.99 in 5.0 mi Calm Calm - N/A   Haze
4:15 PM 65.3 °F 55.9 °F 72% 29.99 in 5.0 mi Calm Calm - N/A   Haze
4:35 PM 64.6 °F 55.2 °F 72% 29.99 in 5.0 mi Calm Calm - N/A   Haze
4:55 PM 61.9 °F 53.6 °F 74% 30.00 in 5.0 mi Calm Calm - N/A   Haze
5:15 PM 61.2 °F 54.7 °F 79% 30.00 in 5.0 mi Calm Calm - N/A   Haze
5:35 PM 60.3 °F 54.0 °F 80% 30.01 in 5.0 mi NE 3.5 mph - N/A   Haze
5:55 PM 61.2 °F 54.5 °F 79% 30.02 in 5.0 mi Calm Calm - N/A   Haze
6:15 PM 61.0 °F 54.1 °F 78% 30.02 in 5.0 mi Calm Calm - N/A   Haze
6:35 PM 58.1 °F 52.9 °F 83% 30.03 in 4.0 mi Calm Calm - N/A   Haze
6:55 PM 57.0 °F 52.2 °F 84% 30.04 in 3.0 mi Calm Calm - N/A   Haze
7:15 PM 55.8 °F 51.3 °F 85% 30.04 in 3.0 mi Calm Calm - N/A   Haze
7:35 PM 54.3 °F 50.0 °F 85% 30.04 in 3.0 mi Calm Calm - N/A   Clear
7:55 PM 55.2 °F 51.6 °F 88% 30.03 in 2.5 mi Calm Calm - N/A   Clear
8:15 PM 54.1 °F 50.4 °F 87% 30.03 in 2.5 mi ENE 3.5 mph - N/A   Clear
8:35 PM 56.8 °F 52.9 °F 87% 30.02 in 3.0 mi East 8.1 mph - N/A   Clear
8:55 PM 57.2 °F 52.9 °F 85% 30.03 in 3.0 mi ENE 5.8 mph - N/A   Clear
9:15 PM 55.4 °F 51.1 °F 85% 30.03 in 2.5 mi East 4.6 mph - N/A   Clear
9:35 PM 54.1 °F 49.8 °F 85% 30.03 in 2.5 mi Calm Calm - N/A   Clear
9:55 PM 54.5 °F 51.1 °F 88% 30.02 in 2.0 mi Calm Calm - N/A   Clear
10:15 PM 52.9 °F 49.5 °F 88% 30.02 in 2.0 mi Calm Calm - N/A   Clear
10:35 PM 54.5 °F 50.9 °F 88% 30.01 in 2.5 mi Calm Calm - N/A   Clear
10:55 PM 54.7 °F 51.3 °F 88% 30.01 in 1.0 mi Calm Calm - N/A   Overcast
11:15 PM 53.4 °F 50.0 °F 88% 30.01 in 0.2 mi Calm Calm - N/A Fog Fog
11:35 PM 52.5 °F 49.3 °F 89% 30.01 in 0.2 mi Calm Calm - N/A Fog Fog
11:55 PM 52.9 °F 50.0 °F 90% 30.01 in 1.0 mi Calm Calm - N/A   Overcast